Location: Country Club Park
(34.0503°N, 118.3212°W)
Time: 23:43:43
(UTC+00:00)

ISS - Visible Passes

Search period start: 30 September 2022 00:00
Search period end: 10 October 2022 00:00
Orbit: 413 x 417 km, 51.6° (Epoch: 30 September)

Date Brightness Start Highest point End Pass type
(mag) Time Alt. Az. Time Alt. Az. Time Alt. Az.
01 Oct -1.4 03:05:48 10° N 03:07:09 14° NNE 03:07:09 14° NNE visible
02 Oct -1.2 02:18:28 10° NNE 02:18:45 10° NNE 02:19:03 10° NNE visible
02 Oct -0.7 03:52:41 10° NW 03:53:16 14° NW 03:53:16 14° NW visible
03 Oct -2.6 03:04:02 10° NNW 03:06:35 32° NNE 03:06:35 32° NNE visible
04 Oct -2.1 02:15:32 10° NNW 02:18:10 21° NNE 02:19:58 14° ENE visible
04 Oct -0.8 03:51:52 10° WNW 03:52:52 17° WNW 03:52:52 17° WNW visible
05 Oct -3.7 03:02:47 10° NW 03:06:07 70° SW 03:06:21 66° S visible
06 Oct -3.6 02:13:55 10° NW 02:17:13 57° NE 02:20:00 14° ESE visible
07 Oct -1.3 03:02:14 10° W 03:04:45 20° SW 03:06:44 13° S visible
08 Oct -2.4 02:12:46 10° WNW 02:15:55 39° SW 02:19:03 10° SSE visible
